Marshfield, WI

7:01 AM CDT on August 22, 2017 (GMT -0500)
Marshfield Municipal

Weather History for KMFI - July, 2013

Change the Weather History Date:

Thursday, July 11, 2013

  Actual Average Record
Temperature  
Mean Temperature 68 °F -  
Max Temperature 80 °F 82 °F 98 °F (1921)
Min Temperature 57 °F 57 °F 42 °F (1945)
Cooling Degree Days 4    
Growing Degree Days 18 (Base 50)    
Moisture  
Dew Point 57 °F    
Average Humidity 67    
Maximum Humidity 93    
Minimum Humidity 42    
Precipitation  
Precipitation 0.00 in - - ()
Sea Level Pressure  
Sea Level Pressure 30.09 in    
Wind  
Wind Speed 2 mph (South)    
Max Wind Speed 6 mph    
Max Gust Speed -    
Visibility 10 miles    
Events Rain    
Averages and records for this station are not official NWS values.
T = Trace of Precipitation, MM = Missing Value Source: NWS Daily Summary

Daily Weather History Graph

Daily Weather History Graph

Search for Another Location

Airport or City:

Trip Planner

Search our weather history database for the weather conditions in past years. The results will help you decide how hot, cold, wet, or windy it might be!

Date:

Astronomy

Jul. 11, 2013 Rise Set
Actual Time 5:26 AM CDT 8:45 PM CDT
Civil Twilight 4:50 AM CDT 9:21 PM CDT
Nautical Twilight 4:03 AM CDT 10:08 PM CDT
Astronomical Twilight 3:04 AM CDT 11:06 PM CDT
Moon 8:55 AM CDT (7/11) 10:14 PM CDT (7/11)
Length of Visible Light 16h 31m
Length of Day
15h 19m
Waxing Crescent, 11% of the Moon is Illuminated
Jul 11
Waxing Crescent
Jul 15
First Quarter
Jul 22
Full
Jul 29
Last Quarter
Aug 6
New

Hourly Weather History & Observations

Time (CDT) Temp. Heat Index Dew Point Humidity Pressure Visibility Wind Dir Wind Speed Gust Speed Precip Events Conditions
12:54 AM 57.9 °F - 55.0 °F 90% 30.05 in 10.0 mi Calm Calm - N/A   Partly Cloudy
1:54 AM 57.9 °F - 55.0 °F 90% 30.06 in 9.0 mi Calm Calm - N/A   Partly Cloudy
2:54 AM 57.0 °F - 55.0 °F 93% 30.08 in 10.0 mi Calm Calm - N/A   Mostly Cloudy
3:54 AM 61.0 °F - 57.0 °F 87% 30.08 in 10.0 mi Calm Calm - 0.00 in Rain Light Rain
4:54 AM 57.0 °F - 55.0 °F 93% 30.09 in 9.0 mi WSW 5.8 mph - N/A   Scattered Clouds
5:54 AM 57.9 °F - 55.0 °F 90% 30.10 in 10.0 mi Calm Calm - N/A   Clear
6:54 AM 60.1 °F - 57.9 °F 93% 30.11 in 8.0 mi Calm Calm - N/A   Clear
7:54 AM 66.0 °F - 57.9 °F 75% 30.12 in 10.0 mi NNW 3.5 mph - N/A   Clear
8:54 AM 71.1 °F - 59.0 °F 66% 30.12 in 10.0 mi Calm Calm - N/A   Clear
9:54 AM 73.0 °F - 57.9 °F 59% 30.12 in 10.0 mi Calm Calm - N/A   Clear
10:54 AM 75.0 °F - 57.9 °F 55% 30.12 in 10.0 mi Calm Calm - N/A   Clear
11:54 AM 75.9 °F - 57.9 °F 54% 30.12 in 10.0 mi Calm Calm - N/A   Partly Cloudy
12:54 PM 78.1 °F - 55.9 °F 46% 30.12 in 10.0 mi Variable 5.8 mph - N/A   Partly Cloudy
1:54 PM 79.0 °F - 57.0 °F 47% 30.11 in 10.0 mi SW 5.8 mph - N/A   Clear
2:54 PM 78.1 °F - 55.0 °F 45% 30.10 in 10.0 mi Variable 3.5 mph - N/A   Clear
3:54 PM 80.1 °F 80.1 °F 55.0 °F 42% 30.09 in 10.0 mi Variable 5.8 mph - N/A   Clear
4:54 PM 78.1 °F - 55.9 °F 46% 30.08 in 10.0 mi SSE 5.8 mph - N/A   Clear
5:54 PM 79.0 °F - 55.0 °F 44% 30.07 in 10.0 mi South 5.8 mph - N/A   Clear
6:54 PM 78.1 °F - 57.0 °F 48% 30.06 in 10.0 mi South 5.8 mph - N/A   Clear
7:54 PM 73.9 °F - 57.9 °F 57% 30.06 in 10.0 mi SSE 4.6 mph - N/A   Partly Cloudy
8:54 PM 72.0 °F - 57.0 °F 59% 30.05 in 10.0 mi SSE 3.5 mph - N/A   Scattered Clouds
9:54 PM 69.1 °F - 57.9 °F 68% 30.07 in 10.0 mi Calm Calm - N/A   Scattered Clouds
10:54 PM 64.9 °F - 57.9 °F 78% 30.07 in 10.0 mi SSE 5.8 mph - N/A   Clear
11:54 PM 64.9 °F - 57.9 °F 78% 30.08 in 10.0 mi South 3.5 mph - N/A   Clear